DW6111 Weather Reports


time (UTC)temp
F
wind
direction
speed
knots
gust
knots
rain 1hr
in
rain 24hr
in
rain mn
in
humidity
%
barometer
mb
20260506033005 39 360 0.0 2.6 0.00 0.00 0.00 100 1016.5
20260506031503 39 328 0.0 4.3 0.00 0.00 0.00 100 1016.6
20260506030100 39 360 0.0 3.5 0.00 0.00 0.00 100 1016.7
20260506024559 40 329 0.0 1.7 0.00 0.00 0.00 100 1016.7
20260506023102 40 360 0.0 0.9 0.00 0.00 0.00 100 1016.7
20260506021556 40 229 0.0 0.0 0.00 0.00 0.00 100 1016.6
20260506020057 40 360 0.0 1.7 0.00 0.00 0.00 100 1016.6
20260506014553 40 360 0.0 0.9 0.00 0.00 0.00 100 1016.7
20260506013107 41 360 0.0 1.7 0.00 0.00 0.00 100 1016.7
20260506011556 41 360 0.0 4.3 0.00 0.00 0.00 100 1016.8
20260506010101 41 310 0.9 3.5 0.00 0.00 0.00 100 1016.8
20260506004545 41 360 0.0 3.5 0.00 0.00 0.00 100 1016.8
20260506003044 41 360 0.0 3.5 0.00 0.00 0.00 100 1016.9
20260506001546 41 360 0.0 3.5 0.00 0.00 0.00 100 1017.0
20260506000040 41 360 0.0 4.3 0.00 0.00 0.00 100 1016.8
20260505234537 41 360 0.0 3.5 0.00 0.00 0.00 100 1017.0
20260505233044 42 360 0.0 2.6 0.00 0.00 0.00 100 1016.9
20260505231534 42 273 0.0 3.5 0.00 0.00 0.00 100 1016.9
20260505230039 42 360 0.0 3.5 0.00 0.00 0.00 100 1017.0
20260505224534 42 360 0.0 3.5 0.00 0.00 0.00 100 1017.1
20260505223030 42 360 0.0 2.6 0.00 0.00 0.00 100 1017.0
20260505221530 42 267 0.0 4.3 0.00 0.00 0.00 100 1017.0
20260505220029 42 360 0.0 5.2 0.00 0.00 0.00 100 1017.0
20260505214527 42 360 0.9 5.2 0.00 0.00 0.00 100 1016.9
20260505213029 42 360 0.9 4.3 0.00 0.00 0.00 100 1017.0
20260505211526 42 63 1.7 5.2 0.00 0.00 0.00 100 1016.9
20260505210026 43 360 1.7 4.3 0.00 0.00 0.00 100 1016.9
20260505204524 43 252 0.9 3.5 0.00 0.00 0.00 100 1016.8
20260505203030 43 284 1.7 6.1 0.00 0.00 0.00 100 1016.9
20260505201521 43 360 0.9 7.8 0.00 0.00 0.00 100 1016.7
20260505200021 43 3 1.7 5.2 0.00 0.00 0.00 100 1016.6
20260505194519 44 360 1.7 5.2 0.00 0.00 0.00 100 1016.5
20260505193019 44 333 0.0 6.1 0.00 0.00 0.00 100 1016.3
20260505191518 45 360 0.0 4.3 0.00 0.00 0.00 100 1016.2
20260505190026 45 295 0.9 4.3 0.00 0.00 0.00 100 1016.0
20260505184517 45 360 0.9 2.6 0.00 0.00 0.00 100 1016.0
20260505183016 46 360 0.0 2.6 0.00 0.00 0.00 100 1015.9
20260505181516 47 300 0.0 3.5 0.00 0.00 0.00 100 1015.8
20260505180016 47 252 0.9 5.2 0.00 0.00 0.00 100 1015.9
20260505174515 47 360 0.0 3.5 0.00 0.00 0.00 100 1015.7
20260505173016 48 299 0.9 7.8 0.00 0.00 0.00 100 1015.8
20260505171514 48 17 0.0 4.3 0.00 0.00 0.00 100 1015.7
20260505170018 49 360 0.9 4.3 0.00 0.00 0.00 100 1015.9
20260505164514 49 239 0.0 3.5 0.00 0.00 0.00 100 1015.9
20260505163012 50 360 0.0 2.6 0.00 0.00 0.00 100 1015.8
20260505161511 50 360 0.0 4.3 0.00 0.00 0.00 100 1015.6
20260505153009 52 129 0.0 2.6 0.00 0.00 0.00 100 1015.6
20260505151508 53 360 0.0 9.6 0.00 0.00 0.00 100 1015.6
20260505124552 52 73 0.0 2.6 0.00 0.00 0.00 100 1015.5
20260505123051 50 360 0.0 3.5 0.00 0.00 0.00 100 1015.7
20260505121550 50 328 0.0 2.6 0.00 0.00 0.00 100 1015.7
20260505120108 50 360 0.9 3.5 0.00 0.00 0.00 100 1015.8
20260505114548 51 360 0.0 2.6 0.00 0.00 0.00 100 1015.8
20260505113048 51 1 0.0 3.5 0.00 0.00 0.00 100 1015.8
20260505111547 51 335 0.0 2.6 0.00 0.00 0.00 100 1015.8
20260505101543 50 360 0.0 3.5 0.00 0.00 0.00 100 1015.8
20260505100043 51 325 0.0 2.6 0.00 0.00 0.00 100 1015.9
20260505094542 51 356 0.9 2.6 0.00 0.00 0.00 100 1015.9
20260505093043 50 70 0.0 4.3 0.00 0.00 0.00 100 1016.0
20260505091540 50 13 0.0 2.6 0.00 0.00 0.00 100 1015.9
20260505090044 49 311 0.0 3.5 0.00 0.00 0.00 100 1016.0
20260505084535 49 111 0.9 3.5 0.00 0.00 0.00 100 1016.0
20260505083032 48 6 0.9 3.5 0.00 0.00 0.00 100 1016.1
20260505081536 47 308 0.0 3.5 0.00 0.00 0.00 100 1016.1
20260505080036 46 273 0.0 1.7 0.00 0.00 0.00 100 1016.1
20260505074523 46 248 0.0 2.6 0.00 0.00 0.00 100 1016.2
20260505073030 44 262 0.0 3.5 0.00 0.00 0.00 100 1016.1
20260505071520 44 300 0.0 2.6 0.00 0.00 0.00 100 1016.1
20260505070021 43 346 0.0 2.6 0.00 0.00 0.00 100 1016.2
20260505064533 41 169 0.0 1.7 0.00 0.00 0.00 100 1016.3
20260505063017 39 156 0.0 0.9 0.00 0.00 0.00 100 1016.3
20260505061529 37 199 0.0 0.0 0.00 0.00 0.00 100 1016.3
20260505060016 36 124 0.0 0.9 0.00 0.00 0.00 100 1016.2
20260505054515 36 125 0.0 0.0 0.00 0.00 0.00 100 1016.1
20260505053015 36 65 0.0 0.0 0.00 0.00 0.00 100 1016.1
20260505051514 36 24 0.0 0.0 0.00 0.00 0.00 100 1016.1
20260505041512 37 303 0.0 0.0 0.00 0.00 0.00 100 1015.6
20260505040006 38 360 0.0 0.0 0.00 0.00 0.00 100 1015.6
20260505034508 38 360 0.0 0.0 0.00 0.00 0.00 100 1015.6